| time (UTC) | temp F | wind direction | speed MPH | gust MPH | rain 1hr in | rain 24hr in | rain mn in | humidity % | barometer mb |
| 20260505013003 | 63 | 0 | 0.0 | 0.0 | 0.00 | 0.00 | 0.00 | 60 | 1006.1 |
| 20260505012003 | 64 | 0 | 0.0 | 0.0 | 0.00 | 0.00 | 0.00 | 60 | 1005.9 |
| 20260505011003 | 64 | 105 | 0.0 | 2.0 | 0.00 | 0.00 | 0.00 | 58 | 1005.8 |
| 20260505010004 | 64 | 0 | 0.0 | 0.0 | 0.00 | 0.00 | 0.00 | 58 | 1005.6 |
| 20260505005004 | 64 | 0 | 0.0 | 0.0 | 0.00 | 0.00 | 0.00 | 56 | 1005.6 |
| 20260505004003 | 65 | 60 | 0.0 | 1.0 | 0.00 | 0.00 | 0.00 | 55 | 1005.6 |
| 20260505003003 | 65 | 60 | 0.0 | 1.0 | 0.00 | 0.00 | 0.00 | 55 | 1005.5 |
| 20260505002214 | 66 | 56 | 1.0 | 3.0 | 0.00 | 0.00 | 0.00 | 53 | 1005.5 |
| 20260505001003 | 66 | 50 | 1.0 | 4.0 | 0.00 | 0.00 | 0.00 | 52 | 1005.2 |
| 20260505000003 | 67 | 122 | 0.0 | 2.0 | 0.00 | 0.00 | 0.00 | 50 | 1005.3 |
| 20260504235003 | 68 | 127 | 0.0 | 1.0 | 0.00 | 0.00 | 0.00 | 50 | 1005.3 |
| 20260504234003 | 69 | 141 | 1.0 | 3.0 | 0.00 | 0.00 | 0.00 | 48 | 1005.1 |
| 20260504233003 | 70 | 168 | 0.0 | 2.0 | 0.00 | 0.00 | 0.00 | 45 | 1005.0 |
| 20260504232003 | 72 | 144 | 1.0 | 7.0 | 0.00 | 0.00 | 0.00 | 44 | 1005.0 |
| 20260504231003 | 73 | 77 | 2.0 | 7.0 | 0.00 | 0.00 | 0.00 | 43 | 1004.9 |
| 20260504230003 | 74 | 91 | 1.0 | 3.0 | 0.00 | 0.00 | 0.00 | 41 | 1004.8 |
| 20260504225003 | 75 | 85 | 1.0 | 3.0 | 0.00 | 0.00 | 0.00 | 40 | 1004.6 |
| 20260504224003 | 75 | 77 | 1.0 | 5.0 | 0.00 | 0.00 | 0.00 | 39 | 1004.6 |
| 20260504223003 | 76 | 58 | 1.0 | 5.0 | 0.00 | 0.00 | 0.00 | 39 | 1004.4 |
| 20260504222003 | 76 | 72 | 2.0 | 8.0 | 0.00 | 0.00 | 0.00 | 37 | 1004.5 |
| 20260504221003 | 76 | 83 | 2.0 | 7.0 | 0.00 | 0.00 | 0.00 | 37 | 1004.6 |
| 20260504220003 | 76 | 75 | 2.0 | 6.0 | 0.00 | 0.00 | 0.00 | 38 | 1004.6 |
| 20260504215003 | 77 | 8 | 2.0 | 5.0 | 0.00 | 0.00 | 0.00 | 36 | 1004.7 |
| 20260504214003 | 77 | 36 | 1.0 | 4.0 | 0.00 | 0.00 | 0.00 | 37 | 1004.7 |
| 20260504213003 | 77 | 34 | 2.0 | 9.0 | 0.00 | 0.00 | 0.00 | 34 | 1004.8 |
| 20260504212003 | 78 | 1 | 1.0 | 9.0 | 0.00 | 0.00 | 0.00 | 36 | 1005.0 |
| 20260504211213 | 78 | 42 | 1.0 | 3.0 | 0.00 | 0.00 | 0.00 | 36 | 1004.9 |
| 20260504210004 | 77 | 346 | 2.0 | 10.0 | 0.00 | 0.00 | 0.00 | 35 | 1005.0 |
| 20260504205003 | 76 | 321 | 2.0 | 9.0 | 0.00 | 0.00 | 0.00 | 36 | 1005.2 |
| 20260504204003 | 76 | 58 | 3.0 | 9.0 | 0.00 | 0.00 | 0.00 | 37 | 1005.2 |
| 20260504203003 | 75 | 31 | 2.0 | 9.0 | 0.00 | 0.00 | 0.00 | 36 | 1005.4 |
| 20260504202214 | 75 | 85 | 2.0 | 5.0 | 0.00 | 0.00 | 0.00 | 38 | 1005.6 |
| 20260504201003 | 75 | 334 | 3.0 | 9.0 | 0.00 | 0.00 | 0.00 | 38 | 1005.6 |
| 20260504200003 | 75 | 337 | 3.0 | 10.0 | 0.00 | 0.00 | 0.00 | 36 | 1005.9 |
| 20260504195003 | 74 | 39 | 3.0 | 9.0 | 0.00 | 0.00 | 0.00 | 38 | 1006.0 |
| 20260504194003 | 74 | 48 | 3.0 | 11.0 | 0.00 | 0.00 | 0.00 | 39 | 1006.0 |
| 20260504193003 | 73 | 356 | 3.0 | 15.0 | 0.00 | 0.00 | 0.00 | 38 | 1006.0 |
| 20260504192003 | 74 | 346 | 4.0 | 12.0 | 0.00 | 0.00 | 0.00 | 38 | 1006.3 |
| 20260504191003 | 74 | 2 | 3.0 | 11.0 | 0.00 | 0.00 | 0.00 | 39 | 1006.5 |
| 20260504190003 | 74 | 348 | 4.0 | 11.0 | 0.00 | 0.00 | 0.00 | 38 | 1006.6 |
| 20260504185214 | 74 | 359 | 4.0 | 11.0 | 0.00 | 0.00 | 0.00 | 38 | 1006.7 |
| 20260504184003 | 74 | 4 | 2.0 | 8.0 | 0.00 | 0.00 | 0.00 | 38 | 1006.8 |
| 20260504183003 | 73 | 32 | 3.0 | 11.0 | 0.00 | 0.00 | 0.00 | 38 | 1006.7 |
| 20260504182003 | 73 | 351 | 3.0 | 9.0 | 0.00 | 0.00 | 0.00 | 38 | 1006.8 |
| 20260504181003 | 73 | 350 | 3.0 | 13.0 | 0.00 | 0.00 | 0.00 | 40 | 1007.0 |
| 20260504180003 | 73 | 353 | 3.0 | 13.0 | 0.00 | 0.00 | 0.00 | 39 | 1007.0 |
| 20260504175003 | 72 | 2 | 3.0 | 8.0 | 0.00 | 0.00 | 0.00 | 39 | 1007.2 |
| 20260504174003 | 72 | 360 | 4.0 | 12.0 | 0.00 | 0.00 | 0.00 | 40 | 1007.3 |
| 20260504173213 | 72 | 23 | 2.0 | 10.0 | 0.00 | 0.00 | 0.00 | 40 | 1007.5 |
| 20260504172003 | 71 | 31 | 3.0 | 9.0 | 0.00 | 0.00 | 0.00 | 40 | 1007.6 |
| 20260504171003 | 71 | 357 | 3.0 | 11.0 | 0.00 | 0.00 | 0.00 | 41 | 1007.6 |
| 20260504151003 | 66 | 18 | 3.0 | 14.0 | 0.00 | 0.00 | 0.00 | 39 | 1009.3 |
| 20260504141003 | 62 | 356 | 2.0 | 5.0 | 0.00 | 0.00 | 0.00 | 43 | 1009.7 |
| 20260504130214 | 55 | 353 | 1.0 | 4.0 | 0.00 | 0.00 | 0.00 | 54 | 1010.2 |
| 20260504110213 | 36 | 0 | 0.0 | 0.0 | 0.00 | 0.00 | 0.00 | 94 | 1010.7 |
| 20260504100212 | 35 | 0 | 0.0 | 0.0 | 0.00 | 0.00 | 0.00 | 92 | 1010.3 |
| 20260504082004 | 37 | 0 | 0.0 | 0.0 | 0.00 | 0.00 | 0.00 | 91 | 1010.7 |
| 20260504081003 | 37 | 0 | 0.0 | 0.0 | 0.00 | 0.00 | 0.00 | 91 | 1010.7 |
| 20260504050213 | 38 | 0 | 0.0 | 0.0 | 0.00 | 0.00 | 0.00 | 89 | 1010.7 |
| 20260504045003 | 39 | 0 | 0.0 | 0.0 | 0.00 | 0.00 | 0.00 | 88 | 1010.6 |
| 20260504044003 | 39 | 0 | 0.0 | 0.0 | 0.00 | 0.00 | 0.00 | 88 | 1010.7 |
| 20260504043003 | 39 | 0 | 0.0 | 0.0 | 0.00 | 0.00 | 0.00 | 88 | 1010.6 |
| 20260504042003 | 39 | 0 | 0.0 | 0.0 | 0.00 | 0.00 | 0.00 | 87 | 1010.5 |
| 20260504041214 | 40 | 0 | 0.0 | 0.0 | 0.00 | 0.00 | 0.00 | 87 | 1010.5 |
| 20260504040004 | 40 | 0 | 0.0 | 0.0 | 0.00 | 0.00 | 0.00 | 87 | 1010.4 |
| 20260504035003 | 40 | 0 | 0.0 | 0.0 | 0.00 | 0.00 | 0.00 | 86 | 1010.5 |
| 20260504034003 | 40 | 0 | 0.0 | 0.0 | 0.00 | 0.00 | 0.00 | 85 | 1010.3 |
| 20260504033003 | 41 | 0 | 0.0 | 0.0 | 0.00 | 0.00 | 0.00 | 85 | 1010.3 |
| 20260504032003 | 41 | 0 | 0.0 | 0.0 | 0.00 | 0.00 | 0.00 | 84 | 1010.3 |
| 20260504031003 | 42 | 0 | 0.0 | 0.0 | 0.00 | 0.00 | 0.00 | 84 | 1010.3 |
| 20260504030214 | 42 | 0 | 0.0 | 0.0 | 0.00 | 0.00 | 0.00 | 83 | 1010.2 |
| 20260504025214 | 42 | 0 | 0.0 | 0.0 | 0.00 | 0.00 | 0.00 | 83 | 1010.2 |
| 20260504024003 | 43 | 0 | 0.0 | 0.0 | 0.00 | 0.00 | 0.00 | 81 | 1010.3 |
| 20260504023003 | 43 | 0 | 0.0 | 0.0 | 0.00 | 0.00 | 0.00 | 80 | 1010.3 |
| 20260504022003 | 43 | 0 | 0.0 | 0.0 | 0.00 | 0.00 | 0.00 | 80 | 1010.2 |
| 20260504021003 | 44 | 0 | 0.0 | 0.0 | 0.00 | 0.00 | 0.00 | 78 | 1010.2 |
| 20260504020003 | 44 | 0 | 0.0 | 0.0 | 0.00 | 0.00 | 0.00 | 78 | 1010.2 |
| 20260504015003 | 45 | 0 | 0.0 | 0.0 | 0.00 | 0.00 | 0.00 | 74 | 1010.1 |
| 20260504014003 | 46 | 0 | 0.0 | 0.0 | 0.00 | 0.00 | 0.00 | 73 | 1010.1 |